Погода в Пригорске

Россия / Республика Хакасия     53°54′33″N   91°15′40″E
темп.,
°C
ветер,
м/с
пор.,
м/с
влажн.,
%
обл.,
%
осадки,
мм/ч
давл.,
гПа
погр.,
м
21 апреля, ср
ср2101:00−6ссз465230 0.0 1026351
04:00−6ссв235197 0.0 1026229
07:00−6ссв225164 0.0 1026231
10:00−3всв2240100 0.0 10261092
13:00−1св333499 0.0 10241726
16:000ссв5437100 0.0 10231435
19:00−1ссв5640100 0.0 1025767
22:00−3с4754100 0.0 1027368
22 апреля, чт
чт2201:00−4ссз477088 0.0 1028222
04:00−4ссз4861100 0.0 1029296
07:00−3ссз6105490 0.0 1031652
10:00−1с895062 0.0 10331121
13:00+1с7754100 0.1 10341536
16:00+2с7748100 0.1 10351718
19:00+1с795863 0.2 10371183
22:00−1с5106793 0.0 1040495
23 апреля, пт
пт2301:00−2ссз597092 0.0 1040321
04:00−3ссз48735 0.0 1040227
07:00−2с59664 0.0 1041402
10:00+2ссв68485 0.0 1040864
13:00+5ссв8840100 0.0 10381513
16:00+6ссв8841100 0.0 10361683
19:00+4с6751100 0.0 10361087
22:00+3с61059100 0.0 1035599
24 апреля, сб
сб2401:00+1с5867100 0.0 1034475
04:000ссз4775100 0.0 1032377
07:000ссз4677100 0.0 1031414
10:00+2ссз3475100 0.1 1030690
13:00+4ссз3359100 0.1 10281175
16:00+5сз336094 0.1 10281118
19:00+4ссз446093 0.1 1028964
22:00+1зсз36755 0.0 1029129
25 апреля, вс
вс2501:000сз368949 0.0 1029166
04:00+1сз467787 0.0 1029444
07:00+2сз357198 0.0 1030796
10:00+4сз465596 0.0 10301370
13:00+6ссз5647100 0.1 10291523
16:00+7с5642100 0.0 10281736
19:00+6с454746 0.0 10281365
22:00+3ссз1163100 0.0 103012